User: anonymous   Login
Location: Ward Pound Ridge Reservation
(41.2500°N, 73.6000°W)
Time: 00:03:37
(UTC-04:00)
Language:

N. Korean satellite - Orbit

View from above orbital plane
View from above orbital plane
View from above satellite
View from above satellite

Ground track
Ground track

The orbit data is extracted from the following two-line orbital elements,

1 39026U 12072A   18168.54897115  .00001003  00000-0  40114-4 0  9994
2 39026  97.2101 178.9017 0038116 324.0710  35.7967 15.26760765305719
Epoch (UTC): 17 June 2018 13:10:31
Eccentricity: 0.0038116
inclination: 97.2101°
perigee height: 459 km
apogee height: 511 km
right ascension of ascending node: 178.9017°
argument of perigee: 324.0710°
revolutions per day: 15.26760765
mean anomaly at epoch: 35.7967°
orbit number at epoch: 30571

The dashed part of the orbit path shows where the satellite is in the earth's shadow,  

DLR